Location: Brahman Valley
(40.6513°N, 111.8855°W)
Time: 09:23:12
(UTC+00:00)

Tiros 1 despin weight - Pass Details

Date: 20 May 2021
Orbit: 594 x 641 km, 48.2° (Epoch: 22 June)

Event Time Altitude Azimuth Distance (km) Brightness Sun altitude
Rises 06:27:04 0° 299° (WNW) 2,941 ? -27.9°
Reaches altitude 10° 06:29:24 10° 299° (WNW) 2,032 ? -28.0°
Enters shadow 06:32:35 43° 299° (WNW) 898 ? -28.1°
Maximum altitude 06:34:06 89° 213° (SSW) 644 - -28.2°
Drops below altitude 10° 06:38:47 10° 121° (ESE) 2,021 - -28.4°
Sets 06:41:06 0° 122° (ESE) 2,923 - -28.5°
